Regional Weather Roundup
Issued by NWS Northern Indiana

Home | Current Version | Previous Version | Text Only | Print | Product List | Glossary On
Versions: 1 2 3 4 5 6 7 8 9 10 11 12 13 14 15 16 17 18 19 20 21 22 23 24 25 26 27 28 29 30 31 32 33 34 35 36 37 38 39 40 41 42 43 44 45 46 47 48 49 50
000
ASUS43 KIWX 100710
RWRIWX

KIWX WEATHER ROUNDUP
NATIONAL WEATHER SERVICE NORTHERN INDIANA
300 AM EDT THU JUL 10 2014

NOTE: "FAIR" INDICATES FEW OR NO CLOUDS BELOW 12,000 FEET WITH NO
SIGNIFICANT WEATHER AND/OR OBSTRUCTIONS TO VISIBILITY.

* THESE STATIONS ARE NOT UNDER NWS QUALITY CONTROL. THEY ALSO MAY NOT
  REPORT WEATHER SUCH AS PRECIPITATION OR FOG.

INZ001>027-100800-
NORTHERN INDIANA

CITY           SKY/WX    TMP DP  RH WIND       PRES   REMARKS
GARY*          CLEAR     60  59  94 CALM      30.10R FOG
VALPARAISO     CLEAR     57  55  93 CALM      30.10R
MICHIGAN CITY* FOG       54  54 100 CALM      30.10S VSB 1/2
LAPORTE*       CLEAR     54  54 100 CALM      30.11R
KNOX*          CLEAR     54  52  93 CALM      30.09R
SOUTH BEND     CLEAR     57  53  86 CALM      30.09S
GOSHEN         CLEAR     59  55  87 N5        30.09R
MONTICELLO*    CLEAR     61  57  85 NE3       30.07S
LOGANSPORT*    PTCLDY    59  54  82 N3        30.09R
ROCHESTER*     CLEAR     59  55  88 CALM      30.09R
WARSAW*        CLEAR     55  54  94 CALM      30.09R
ANGOLA*        CLEAR     57  54  88 CALM      30.08R
FORT WAYNE     PTCLDY    62  55  77 N3        30.08R
HUNTINGTON*    CLEAR     60  55  84 N3        30.07S
PERU/GRISSOM   PTCLDY    63  60  89 NE3       30.08R
MARION*        MOCLDY    63  56  78 CALM      30.09R

$$
INZ028>050-100800-
CENTRAL INDIANA

CITY           SKY/WX    TMP DP  RH WIND       PRES   REMARKS
LAFAYETTE      CLEAR     63  57  81 N5        30.07R
KOKOMO*        CLOUDY    64  55  72 NE6       30.08S
MUNCIE*        MOCLDY    63  59  87 CALM      30.08R
INDIANAPOLIS   PTCLDY    63  57  81 NW5       30.06R

$$
MIZ043>046-050>051-056>058-064>065-071>073-077>080-100800-
SOUTHWEST LOWER MICHIGAN

CITY           SKY/WX    TMP DP  RH WIND       PRES   REMARKS
BATTLE CREEK   CLEAR     57  53  86 NW3       30.09R
BENTON HARBOR  CLEAR     55  53  93 CALM      30.09R
COLDWATER*     CLEAR     56  54  95 CALM      30.08S
HILLSDALE*     CLEAR     57  56  97 CALM      30.08R
HOLLAND        CLEAR     57  54  89 CALM      30.10R
GRAND RAPIDS   CLEAR     59  54  83 NW3       30.10R
KALAMAZOO      CLEAR     57  53  86 N5        30.09R
STURGIS*       CLEAR     55  54  94 N3        30.08S
THREE RIVERS*  FAIR      56  55  96 CALM      30.09R

$$
OHZ001>008-015>018-024>025-100800-
NORTHWEST OHIO

CITY           SKY/WX    TMP DP  RH WIND       PRES   REMARKS
WAUSEON*       FAIR      59  55  88 N6        30.06R
DEFIANCE       CLEAR     58  54  86 CALM      30.07R
FINDLAY        CLEAR     62  56  80 N5        30.04R
TOLEDO EXPRESS CLEAR     60  54  80 NW5       30.04S
TOLEDO METCALF CLEAR     63  56  78 N5        30.05R
LIMA           MOCLDY    64  57  78 NW3       30.06R

$$
&&


USA.gov is the U.S. government's official web portal to all federal, state and local government web resources and services.